TimeEST,TemperatureF,Dew PointF,Humidity,Sea Level PressureIn,VisibilityMPH,Wind Direction,Wind SpeedMPH,Gust SpeedMPH,PrecipitationIn,Events,Conditions,WindDirDegrees,DateUTC
12:53 AM,46.0,28.9,51,30.29,10.0,WNW,11.5,18.4,N/A,,Clear,300,2013-01-10 05:53:00
1:53 AM,45.0,27.0,49,30.33,10.0,WNW,9.2,18.4,N/A,,Clear,300,2013-01-10 06:53:00
2:53 AM,43.0,27.0,53,30.35,10.0,NW,6.9,-,N/A,,Clear,310,2013-01-10 07:53:00
3:53 AM,42.1,26.1,53,30.36,10.0,WNW,5.8,-,N/A,,Clear,290,2013-01-10 08:53:00
5:53 AM,39.9,25.0,55,30.39,10.0,NNW,5.8,-,N/A,,Clear,330,2013-01-10 10:53:00
6:53 AM,39.0,24.1,55,30.43,10.0,NW,5.8,-,N/A,,Clear,320,2013-01-10 11:53:00
7:53 AM,39.0,25.0,57,30.46,10.0,WNW,3.5,-,N/A,,Clear,290,2013-01-10 12:53:00
8:53 AM,41.0,25.0,53,30.49,10.0,NNW,8.1,-,N/A,,Clear,340,2013-01-10 13:53:00
9:53 AM,43.0,26.1,51,30.50,10.0,North,13.8,18.4,N/A,,Clear,360,2013-01-10 14:53:00
10:53 AM,46.0,26.1,46,30.51,10.0,North,9.2,-,N/A,,Clear,360,2013-01-10 15:53:00
11:53 AM,46.9,25.0,42,30.48,10.0,NNW,9.2,-,N/A,,Clear,340,2013-01-10 16:53:00
12:53 PM,48.0,25.0,41,30.47,10.0,NNE,8.1,-,N/A,,Clear,20,2013-01-10 17:53:00
1:53 PM,48.9,24.1,38,30.47,10.0,NW,10.4,-,N/A,,Clear,320,2013-01-10 18:53:00
2:53 PM,48.9,25.0,39,30.48,10.0,NNW,8.1,-,N/A,,Clear,340,2013-01-10 19:53:00
3:53 PM,48.9,24.1,38,30.48,10.0,North,6.9,-,N/A,,Clear,360,2013-01-10 20:53:00
4:53 PM,46.0,24.1,42,30.50,10.0,NNW,4.6,-,N/A,,Clear,330,2013-01-10 21:53:00
5:53 PM,43.0,24.1,47,30.51,10.0,Calm,Calm,-,N/A,,Clear,0,2013-01-10 22:53:00
6:53 PM,42.1,24.1,49,30.51,10.0,NE,3.5,-,N/A,,Clear,50,2013-01-10 23:53:00
7:53 PM,41.0,24.1,51,30.49,10.0,NNE,8.1,-,N/A,,Clear,20,2013-01-11 00:53:00
8:53 PM,41.0,25.0,53,30.51,10.0,NNE,4.6,-,N/A,,Clear,30,2013-01-11 01:53:00
9:53 PM,39.9,25.0,55,30.52,10.0,Calm,Calm,-,N/A,,Clear,0,2013-01-11 02:53:00
11:53 PM,37.0,25.0,62,30.51,10.0,NE,3.5,-,N/A,,Clear,50,2013-01-11 04:53:00